Atlanta, GA

12:57 AM EST on December 06, 2019 (GMT -0500)
The Hartsfield Atlanta International

Weather History for KATL - October, 2019

Change the Weather History Date:

Thursday, October 31, 2019

  Actual Average Record
Temperature  
Mean Temperature 57 °F 59 °F  
Max Temperature 75 °F 69 °F 86 °F (2016)
Min Temperature 38 °F 49 °F 29 °F (1917)
Degree Days  
Heating Degree Days 8 7  
Month to date heating degree days 52 117  
Since 1 July heating degree days 52 129  
Cooling Degree Days 0 1  
Month to date cooling degree days 166 67  
Year to date cooling degree days 2643 1872  
Growing Degree Days 7 (Base 50)    
Moisture  
Dew Point 55 °F    
Average Humidity 81    
Maximum Humidity 91    
Minimum Humidity 64    
Precipitation  
Precipitation 0.20 in 0.10 in 1.00 in (1932)
Month to date precipitation 3.59 3.41  
Year to date precipitation 35.92 41.71  
Sea Level Pressure  
Sea Level Pressure 29.97 in    
Wind  
Wind Speed 14 mph ()    
Max Wind Speed 36 mph    
Max Gust Speed 47 mph    
Visibility 8.0 miles    
Events Rain , Thunderstorm    
T = Trace of Precipitation, MM = Missing Value Source: Averaged Metar Reports

Daily Weather History Graph

Daily Weather History Graph

Search for Another Location

Airport or City:

Astronomy

Oct. 31, 2019 Rise Set
Actual Time 7:55 AM EDT 6:46 PM EDT
Civil Twilight 7:29 AM EDT 7:12 PM EDT
Nautical Twilight 7:00 AM EDT 7:41 PM EDT
Astronomical Twilight 6:31 AM EDT 8:10 PM EDT
Moon 11:35 AM EDT (10/31) 9:50 PM EDT (10/31)
Length of Visible Light 11h 42m
Length of Day
10h 50m
Waxing Crescent, 15% of the Moon is Illuminated
Oct 31
Waxing Crescent
Nov 4
First Quarter
Nov 12
Full
Nov 19
Last Quarter
Nov 26
New

Hourly Weather History & Observations

Time (EDT) Temp. Windchill Dew Point Humidity Pressure Visibility Wind Dir Wind Speed Gust Speed Precip Events Conditions
12:52 AM 73.0 °F - 69.1 °F 87% 29.96 in 10.0 mi South 9.2 mph 17.3 mph N/A   Overcast
1:52 AM 73.0 °F - 69.1 °F 87% 29.95 in 10.0 mi SSW 10.4 mph - N/A   Overcast
2:52 AM 73.0 °F - 70.0 °F 90% 29.92 in 9.0 mi South 8.1 mph - N/A   Overcast
3:52 AM 73.0 °F - 70.0 °F 90% 29.89 in 9.0 mi South 8.1 mph - N/A   Overcast
4:52 AM 73.0 °F - 69.1 °F 87% 29.89 in 10.0 mi South 11.5 mph 19.6 mph N/A   Overcast
5:52 AM 73.0 °F - 68.0 °F 84% 29.90 in 10.0 mi SSW 11.5 mph 18.4 mph 0.00 in Rain Light Rain
6:52 AM 72.0 °F - 68.0 °F 87% 29.89 in 10.0 mi SSW 11.5 mph - 0.00 in   Overcast
7:52 AM 73.0 °F - 68.0 °F 84% 29.89 in 9.0 mi SSW 13.8 mph - N/A   Overcast
8:43 AM 72.0 °F - 69.1 °F 91% 29.91 in 2.0 mi SSW 11.5 mph 19.6 mph 0.00 in   Light Drizzle
8:52 AM 72.0 °F - 69.1 °F 91% 29.89 in 2.0 mi SSW 13.8 mph - 0.00 in   Light Drizzle
9:52 AM 73.0 °F - 69.1 °F 87% 29.89 in 2.0 mi SSW 10.4 mph - 0.01 in Rain Light Rain
9:54 AM 73.0 °F - 69.1 °F 87% 29.91 in 6.0 mi SSW 13.8 mph - 0.00 in Rain Light Rain
10:52 AM 73.9 °F - 69.1 °F 85% 29.88 in 10.0 mi SSW 11.5 mph - 0.00 in   Overcast
11:52 AM 75.9 °F - 69.1 °F 79% 29.86 in 10.0 mi SSW 15.0 mph 27.6 mph N/A   Overcast
12:52 PM 75.9 °F - 68.0 °F 76% 29.85 in 10.0 mi SSW 17.3 mph 29.9 mph N/A   Overcast
1:00 PM 75.0 °F - 68.0 °F 79% 29.87 in 6.0 mi SSW 16.1 mph 26.5 mph 0.00 in Rain Light Rain
1:14 PM 68.0 °F - 63.0 °F 84% 29.88 in 4.0 mi WNW 35.7 mph 47.2 mph 0.02 in Rain , Thunderstorm Rain
1:18 PM 64.0 °F - 60.1 °F 87% 29.91 in 2.0 mi WNW 34.5 mph 47.2 mph 0.04 in Rain , Thunderstorm Heavy Thunderstorms and Rain
1:22 PM 63.0 °F - 57.9 °F 84% 29.91 in 3.0 mi WNW 31.1 mph 47.2 mph 0.07 in Rain , Thunderstorm Thunderstorms and Rain
1:28 PM 62.1 °F - 59.0 °F 90% 29.92 in 1.0 mi WNW 20.7 mph 47.2 mph 0.10 in Rain , Thunderstorm Heavy Thunderstorms and Rain
1:44 PM 57.9 °F - 55.0 °F 90% 29.92 in 6.0 mi NW 20.7 mph 31.1 mph 0.17 in Rain Light Rain
1:52 PM 57.9 °F - 55.0 °F 90% 29.88 in 7.0 mi NW 15.0 mph 25.3 mph 0.17 in Rain , Thunderstorm Light Rain
2:05 PM 57.9 °F - 54.0 °F 87% 29.92 in 8.0 mi WNW 19.6 mph - 0.00 in Rain Light Rain
2:52 PM 55.0 °F - 50.0 °F 83% 29.91 in 8.0 mi WNW 26.5 mph 32.2 mph 0.01 in Rain Light Rain
3:52 PM 53.1 °F - 46.9 °F 80% 29.95 in 10.0 mi WNW 21.9 mph 27.6 mph 0.01 in   Overcast
4:22 PM 53.1 °F - 46.9 °F 80% 29.98 in 10.0 mi WNW 19.6 mph 26.5 mph N/A   Overcast
4:52 PM 53.1 °F - 45.0 °F 74% 29.99 in 10.0 mi WNW 24.2 mph 29.9 mph N/A   Overcast
5:11 PM 52.0 °F - 45.0 °F 77% 30.02 in 10.0 mi WNW 17.3 mph 24.2 mph N/A   Overcast
5:52 PM 48.0 °F - 41.0 °F 77% 30.06 in 10.0 mi WNW 23.0 mph 29.9 mph N/A   Overcast
6:52 PM 46.0 °F 38.8 °F 37.0 °F 71% 30.09 in 10.0 mi NW 18.4 mph 36.8 mph N/A   Overcast
7:44 PM 44.1 °F 35.9 °F 34.0 °F 68% 30.11 in 10.0 mi NW 19.6 mph 27.6 mph N/A   Scattered Clouds
7:52 PM 44.1 °F 36.8 °F 35.1 °F 71% 30.12 in 10.0 mi WNW 16.1 mph 26.5 mph N/A   Partly Cloudy
8:52 PM 43.0 °F 36.0 °F 35.1 °F 74% 30.14 in 10.0 mi NW 13.8 mph - N/A   Scattered Clouds
9:29 PM 43.0 °F 35.7 °F 34.0 °F 71% 30.15 in 10.0 mi NW 15.0 mph - N/A   Mostly Cloudy
9:52 PM 43.0 °F 34.0 °F 33.1 °F 68% 30.15 in 10.0 mi NNW 21.9 mph 32.2 mph N/A   Mostly Cloudy
10:05 PM 41.0 °F 30.9 °F 30.9 °F 67% 30.16 in 10.0 mi NW 24.2 mph 35.7 mph N/A   Scattered Clouds
10:52 PM 39.0 °F 30.3 °F 30.0 °F 70% 30.18 in 10.0 mi NNW 16.1 mph 21.9 mph N/A   Partly Cloudy
11:52 PM 39.0 °F 29.0 °F 28.0 °F 65% 30.19 in 10.0 mi NNW 20.7 mph 28.8 mph N/A   Partly Cloudy